Time,TemperatureF,DewpointF,PressureIn,WindDirection,WindDirectionDegrees,WindSpeedMPH,WindSpeedGustMPH,Humidity,HourlyPrecipIn,Conditions,Clouds,dailyrainin,SolarRadiationWatts/m^2,SoftwareType,DateUTC
2013-04-26 00:05:00,48.9,35.0,30.38,SSW,211,0.0,0.0,60,0.00,,,0.00,0,weatherlink.com 1.10,2013-04-26 04:05:00,
2013-04-26 00:20:00,48.8,34.0,30.38,SSW,211,0.0,0.0,58,0.00,,,0.00,0,weatherlink.com 1.10,2013-04-26 04:20:00,
2013-04-26 00:35:00,48.6,35.0,30.38,SSW,211,0.0,0.0,60,0.00,,,0.00,0,weatherlink.com 1.10,2013-04-26 04:35:00,
2013-04-26 00:50:00,48.3,34.0,30.38,SSW,211,0.0,0.0,59,0.00,,,0.00,0,weatherlink.com 1.10,2013-04-26 04:50:00,
2013-04-26 01:05:00,47.9,34.0,30.39,SSW,211,0.0,0.0,58,0.00,,,0.00,0,weatherlink.com 1.10,2013-04-26 05:05:00,
2013-04-26 01:20:00,47.4,34.0,30.39,SSW,211,0.0,0.0,60,0.00,,,0.00,0,weatherlink.com 1.10,2013-04-26 05:20:00,
2013-04-26 01:35:00,46.8,33.0,30.39,SSW,211,0.0,0.0,60,0.00,,,0.00,0,weatherlink.com 1.10,2013-04-26 05:35:00,
2013-04-26 01:50:00,46.4,34.0,30.39,SSW,211,0.0,0.0,63,0.00,,,0.00,0,weatherlink.com 1.10,2013-04-26 05:50:00,
2013-04-26 02:05:00,45.7,34.0,30.39,SSW,211,0.0,0.0,65,0.00,,,0.00,0,weatherlink.com 1.10,2013-04-26 06:05:00,
2013-04-26 02:20:00,45.4,35.0,30.39,SSW,211,0.0,0.0,67,0.00,,,0.00,0,weatherlink.com 1.10,2013-04-26 06:20:00,
2013-04-26 02:35:00,44.9,36.0,30.38,SSW,211,0.0,0.0,71,0.00,,,0.00,0,weatherlink.com 1.10,2013-04-26 06:35:00,
2013-04-26 02:50:00,44.6,36.0,30.38,SSW,211,0.0,0.0,73,0.00,,,0.00,0,weatherlink.com 1.10,2013-04-26 06:50:00,
2013-04-26 03:05:00,44.3,37.0,30.38,SSW,211,0.0,0.0,75,0.00,,,0.00,0,weatherlink.com 1.10,2013-04-26 07:05:00,
2013-04-26 03:20:00,43.9,37.0,30.38,SSW,211,0.0,0.0,77,0.00,,,0.00,0,weatherlink.com 1.10,2013-04-26 07:20:00,
2013-04-26 03:35:00,43.5,37.0,30.37,SSW,211,0.0,0.0,78,0.00,,,0.00,0,weatherlink.com 1.10,2013-04-26 07:35:00,
2013-04-26 03:50:00,43.1,37.0,30.38,SSW,211,0.0,0.0,79,0.00,,,0.00,0,weatherlink.com 1.10,2013-04-26 07:50:00,
2013-04-26 04:05:00,42.6,37.0,30.38,SSW,211,0.0,0.0,80,0.00,,,0.00,0,weatherlink.com 1.10,2013-04-26 08:05:00,
2013-04-26 04:20:00,42.2,37.0,30.38,SSW,211,0.0,0.0,81,0.00,,,0.00,0,weatherlink.com 1.10,2013-04-26 08:20:00,
2013-04-26 04:35:00,41.8,37.0,30.38,SSW,211,0.0,0.0,82,0.00,,,0.00,0,weatherlink.com 1.10,2013-04-26 08:35:00,
2013-04-26 04:50:00,41.3,37.0,30.38,SSW,211,0.0,0.0,83,0.00,,,0.00,0,weatherlink.com 1.10,2013-04-26 08:50:00,
2013-04-26 05:05:00,41.1,37.0,30.38,SSW,211,0.0,0.0,84,0.00,,,0.00,0,weatherlink.com 1.10,2013-04-26 09:05:00,
2013-04-26 05:20:00,40.6,36.0,30.39,SSW,211,0.0,0.0,84,0.00,,,0.00,0,weatherlink.com 1.10,2013-04-26 09:20:00,
2013-04-26 05:35:00,40.3,36.0,30.39,SSW,211,0.0,0.0,84,0.00,,,0.00,0,weatherlink.com 1.10,2013-04-26 09:35:00,
2013-04-26 05:50:00,40.1,36.0,30.39,SSW,211,0.0,0.0,84,0.00,,,0.00,0,weatherlink.com 1.10,2013-04-26 09:50:00,
2013-04-26 06:05:00,39.8,35.0,30.39,SSW,211,0.0,0.0,84,0.00,,,0.00,0,weatherlink.com 1.10,2013-04-26 10:05:00,
2013-04-26 06:20:00,39.6,36.0,30.40,SSW,211,0.0,0.0,85,0.00,,,0.00,0,weatherlink.com 1.10,2013-04-26 10:20:00,
2013-04-26 06:35:00,39.5,35.0,30.40,SSW,211,0.0,0.0,85,0.00,,,0.00,0,weatherlink.com 1.10,2013-04-26 10:35:00,
2013-04-26 06:50:00,39.3,36.0,30.41,SSW,211,0.0,0.0,86,0.00,,,0.00,0,weatherlink.com 1.10,2013-04-26 10:50:00,
2013-04-26 07:06:00,39.5,36.0,30.41,SSW,211,0.0,0.0,87,0.00,,,0.00,12,weatherlink.com 1.10,2013-04-26 11:06:00,
2013-04-26 07:21:00,39.6,36.0,30.42,SSW,197,0.0,0.0,88,0.00,,,0.00,19,weatherlink.com 1.10,2013-04-26 11:21:00,
2013-04-26 07:36:00,39.8,37.0,30.43,SSW,197,0.0,0.0,88,0.00,,,0.00,28,weatherlink.com 1.10,2013-04-26 11:36:00,
2013-04-26 07:51:00,39.9,37.0,30.43,SSW,197,0.0,0.0,89,0.00,,,0.00,58,weatherlink.com 1.10,2013-04-26 11:51:00,
2013-04-26 08:06:00,40.5,38.0,30.43,SSW,197,0.0,0.0,90,0.00,,,0.00,216,weatherlink.com 1.10,2013-04-26 12:06:00,
2013-04-26 08:21:00,42.2,40.0,30.43,SSW,197,0.0,1.0,92,0.00,,,0.00,288,weatherlink.com 1.10,2013-04-26 12:21:00,
2013-04-26 08:36:00,44.3,42.0,30.43,NW,315,0.0,1.0,90,0.00,,,0.00,262,weatherlink.com 1.10,2013-04-26 12:36:00,
2013-04-26 08:51:00,47.1,44.0,30.42,NW,315,0.0,0.0,87,0.00,,,0.00,383,weatherlink.com 1.10,2013-04-26 12:51:00,
2013-04-26 09:06:00,50.1,42.0,30.42,East,101,0.0,3.0,74,0.00,,,0.00,445,weatherlink.com 1.10,2013-04-26 13:06:00,
2013-04-26 09:21:00,54.1,45.0,30.42,ESE,102,1.0,1.0,72,0.00,,,0.00,499,weatherlink.com 1.10,2013-04-26 13:21:00,
2013-04-26 09:36:00,54.8,41.0,30.42,ESE,116,3.0,3.0,60,0.00,,,0.00,557,weatherlink.com 1.10,2013-04-26 13:36:00,
2013-04-26 09:51:00,56.0,41.0,30.41,NE,56,0.0,3.0,57,0.00,,,0.00,612,weatherlink.com 1.10,2013-04-26 13:51:00,
2013-04-26 10:06:00,57.6,40.0,30.40,SSE,167,0.0,3.0,53,0.00,,,0.00,663,weatherlink.com 1.10,2013-04-26 14:06:00,
2013-04-26 10:21:00,59.9,40.0,30.41,ENE,74,2.0,4.0,49,0.00,,,0.00,710,weatherlink.com 1.10,2013-04-26 14:21:00,
2013-04-26 10:36:00,61.8,41.0,30.41,SSE,162,0.0,4.0,46,0.00,,,0.00,752,weatherlink.com 1.10,2013-04-26 14:36:00,
2013-04-26 10:51:00,62.1,40.0,30.41,East,90,2.0,4.0,45,0.00,,,0.00,798,weatherlink.com 1.10,2013-04-26 14:51:00,
2013-04-26 11:06:00,62.6,40.0,30.40,ESE,106,0.0,5.0,43,0.00,,,0.00,838,weatherlink.com 1.10,2013-04-26 15:06:00,
2013-04-26 11:22:00,63.1,41.0,30.41,North,355,1.0,5.0,45,0.00,,,0.00,879,weatherlink.com 1.10,2013-04-26 15:22:00,
2013-04-26 11:37:00,64.0,38.0,30.41,East,84,2.0,4.0,38,0.00,,,0.00,826,weatherlink.com 1.10,2013-04-26 15:37:00,
2013-04-26 11:52:00,63.4,39.0,30.41,East,90,0.0,5.0,40,0.00,,,0.00,777,weatherlink.com 1.10,2013-04-26 15:52:00,
2013-04-26 12:07:00,64.3,42.0,30.41,ESE,109,1.0,3.0,45,0.00,,,0.00,612,weatherlink.com 1.10,2013-04-26 16:07:00,
2013-04-26 12:22:00,63.7,38.0,30.42,SE,130,0.0,2.0,39,0.00,,,0.00,663,weatherlink.com 1.10,2013-04-26 16:22:00,
2013-04-26 12:37:00,63.7,38.0,30.41,ESE,113,2.0,4.0,39,0.00,,,0.00,519,weatherlink.com 1.10,2013-04-26 16:37:00,
2013-04-26 12:52:00,65.5,40.0,30.41,SSE,168,0.0,4.0,40,0.00,,,0.00,749,weatherlink.com 1.10,2013-04-26 16:52:00,
2013-04-26 13:07:00,66.4,39.0,30.41,East,97,0.0,3.0,36,0.00,,,0.00,918,weatherlink.com 1.10,2013-04-26 17:07:00,
2013-04-26 13:22:00,66.8,40.0,30.41,ENE,63,0.0,3.0,37,0.00,,,0.00,976,weatherlink.com 1.10,2013-04-26 17:22:00,
2013-04-26 13:37:00,67.1,40.0,30.40,WSW,255,0.0,5.0,37,0.00,,,0.00,907,weatherlink.com 1.10,2013-04-26 17:37:00,
2013-04-26 13:52:00,66.9,40.0,30.40,ENE,76,0.0,3.0,37,0.00,,,0.00,782,weatherlink.com 1.10,2013-04-26 17:52:00,
2013-04-26 14:07:00,66.8,42.0,30.39,NNW,347,0.0,3.0,40,0.00,,,0.00,459,weatherlink.com 1.10,2013-04-26 18:07:00,
2013-04-26 14:22:00,66.4,38.0,30.39,SSE,161,0.0,4.0,35,0.00,,,0.00,482,weatherlink.com 1.10,2013-04-26 18:22:00,
2013-04-26 14:37:00,66.4,36.0,30.38,East,92,2.0,2.0,33,0.00,,,0.00,482,weatherlink.com 1.10,2013-04-26 18:37:00,
2013-04-26 14:52:00,66.6,39.0,30.38,East,82,0.0,1.0,36,0.00,,,0.00,410,weatherlink.com 1.10,2013-04-26 18:52:00,
2013-04-26 15:07:00,66.4,44.0,30.38,SSE,153,0.0,1.0,44,0.00,,,0.00,306,weatherlink.com 1.10,2013-04-26 19:07:00,
2013-04-26 15:22:00,65.8,38.0,30.36,ESE,121,0.0,0.0,36,0.00,,,0.00,264,weatherlink.com 1.10,2013-04-26 19:22:00,
2013-04-26 15:37:00,65.6,36.0,30.36,ESE,121,0.0,1.0,34,0.00,,,0.00,163,weatherlink.com 1.10,2013-04-26 19:37:00,
2013-04-26 15:52:00,64.7,44.0,30.34,ESE,121,0.0,0.0,48,0.00,,,0.00,153,weatherlink.com 1.10,2013-04-26 19:52:00,
2013-04-26 16:07:00,64.7,42.0,30.32,ESE,121,0.0,1.0,44,0.00,,,0.00,218,weatherlink.com 1.10,2013-04-26 20:07:00,
2013-04-26 16:22:00,64.7,46.0,30.32,ESE,121,0.0,0.0,51,0.00,,,0.00,107,weatherlink.com 1.10,2013-04-26 20:22:00,
2013-04-26 16:37:00,64.3,45.0,30.33,ESE,121,0.0,0.0,50,0.00,,,0.00,83,weatherlink.com 1.10,2013-04-26 20:37:00,
2013-04-26 16:52:00,63.9,47.0,30.31,ESE,121,0.0,0.0,54,0.00,,,0.00,162,weatherlink.com 1.10,2013-04-26 20:52:00,
2013-04-26 17:07:00,63.9,41.0,30.32,WSW,237,0.0,2.0,43,0.00,,,0.00,209,weatherlink.com 1.10,2013-04-26 21:07:00,
2013-04-26 17:22:00,64.7,43.0,30.32,SSE,163,0.0,1.0,46,0.00,,,0.00,144,weatherlink.com 1.10,2013-04-26 21:22:00,
2013-04-26 17:37:00,64.3,45.0,30.32,SSE,163,0.0,0.0,50,0.00,,,0.00,77,weatherlink.com 1.10,2013-04-26 21:37:00,
2013-04-26 17:52:00,63.7,46.0,30.33,SSE,163,0.0,0.0,53,0.00,,,0.00,95,weatherlink.com 1.10,2013-04-26 21:52:00,
2013-04-26 18:07:00,63.4,47.0,30.34,SSE,163,0.0,0.0,56,0.00,,,0.00,91,weatherlink.com 1.10,2013-04-26 22:07:00,
2013-04-26 18:22:00,63.2,47.0,30.36,SSE,163,0.0,0.0,55,0.00,,,0.00,88,weatherlink.com 1.10,2013-04-26 22:22:00,
2013-04-26 18:52:00,62.4,42.0,30.37,NNW,340,0.0,2.0,48,0.00,,,0.00,23,weatherlink.com 1.10,2013-04-26 22:52:00,
2013-04-26 19:07:00,62.0,41.0,30.38,ENE,71,0.0,2.0,47,0.00,,,0.00,16,weatherlink.com 1.10,2013-04-26 23:07:00,
2013-04-26 19:22:00,61.6,42.0,30.39,South,170,0.0,0.0,49,0.00,,,0.00,11,weatherlink.com 1.10,2013-04-26 23:22:00,
2013-04-26 19:37:00,61.5,43.0,30.38,South,171,0.0,1.0,51,0.00,,,0.00,11,weatherlink.com 1.10,2013-04-26 23:37:00,
2013-04-26 19:52:00,60.9,45.0,30.38,South,171,0.0,1.0,56,0.00,,,0.00,7,weatherlink.com 1.10,2013-04-26 23:52:00,
2013-04-26 20:07:00,60.2,42.0,30.38,South,171,0.0,0.0,51,0.00,,,0.00,0,weatherlink.com 1.10,2013-04-27 00:07:00,
2013-04-26 20:22:00,59.6,43.0,30.37,South,171,0.0,1.0,54,0.00,,,0.00,0,weatherlink.com 1.10,2013-04-27 00:22:00,
2013-04-26 20:37:00,59.2,42.0,30.36,South,171,0.0,0.0,54,0.00,,,0.00,0,weatherlink.com 1.10,2013-04-27 00:37:00,
2013-04-26 20:52:00,58.6,43.0,30.35,South,171,0.0,0.0,56,0.00,,,0.00,0,weatherlink.com 1.10,2013-04-27 00:52:00,
2013-04-26 21:07:00,58.1,43.0,30.34,NW,314,0.0,0.0,58,0.00,,,0.00,0,weatherlink.com 1.10,2013-04-27 01:07:00,
2013-04-26 21:22:00,57.5,43.0,30.33,NW,314,0.0,0.0,59,0.00,,,0.00,0,weatherlink.com 1.10,2013-04-27 01:22:00,
2013-04-26 21:37:00,57.2,43.0,30.32,NW,314,0.0,1.0,59,0.00,,,0.00,0,weatherlink.com 1.10,2013-04-27 01:37:00,
2013-04-26 21:52:00,56.9,42.0,30.32,ENE,78,0.0,1.0,59,0.00,,,0.00,0,weatherlink.com 1.10,2013-04-27 01:52:00,
2013-04-26 22:07:00,56.7,44.0,30.33,ENE,78,0.0,0.0,63,0.00,,,0.00,0,weatherlink.com 1.10,2013-04-27 02:07:00,
2013-04-26 22:22:00,56.6,44.0,30.33,ENE,78,0.0,0.0,64,0.00,,,0.00,0,weatherlink.com 1.10,2013-04-27 02:22:00,
2013-04-26 22:37:00,56.3,44.0,30.34,North,5,0.0,3.0,64,0.00,,,0.00,0,weatherlink.com 1.10,2013-04-27 02:37:00,
2013-04-26 22:52:00,56.2,43.0,30.36,North,5,0.0,0.0,62,0.00,,,0.00,0,weatherlink.com 1.10,2013-04-27 02:52:00,
2013-04-26 23:07:00,56.0,44.0,30.36,WSW,240,0.0,1.0,65,0.00,,,0.00,0,weatherlink.com 1.10,2013-04-27 03:07:00,
2013-04-26 23:22:00,56.0,44.0,30.36,WSW,240,0.0,1.0,64,0.00,,,0.00,0,weatherlink.com 1.10,2013-04-27 03:22:00,
2013-04-26 23:37:00,55.9,45.0,30.36,WSW,240,0.0,0.0,66,0.00,,,0.00,0,weatherlink.com 1.10,2013-04-27 03:37:00,
2013-04-26 23:52:00,55.6,43.0,30.36,WSW,240,0.0,0.0,64,0.00,,,0.00,0,weatherlink.com 1.10,2013-04-27 03:52:00,